Wind_Speed
28 28 28 28 30 32 34 35 35 34 34 33 34 35 36 38 39 40 41 42 43 43 43 44 43 43 43 43 43 43 41 40 38 35 33 32 32 32 32 32 31 32 32 29 29 29 27 24 21 19 19 18 19 22 23 23 24 26 28 31 34 34 30 27 24 24 25 26 27 26 25 23 22 22 24 27 29 26 25 25 26 24 23 22 21
27 26 25 26 27 29 31 32 33 33 32 31 31 32 34 35 37 38 39 41 42 42 42 43 43 43 43 43 43 42 40 39 36 34 33 32 32 32 31 31 32 32 30 28 28 29 26 24 21 20 20 20 20 22 23 23 25 28 29 31 34 32 29 26 23 23 25 25 25 24 23 22 22 22 24 28 27 24 25 26 25 24 22 21 20
26 24 24 24 24 25 26 28 29 28 28 27 27 28 30 30 32 33 34 35 35 36 37 38 38 37 36 36 36 35 34 33 33 32 32 32 32 32 31 32 31 29 27 27 28 28 27 25 24 22 22 21 21 22 23 24 26 28 29 32 33 31 28 25 22 23 24 24 22 21 21 20 20 21 24 26 24 23 25 26 25 24 22 21 20
25 24 22 21 21 21 22 23 22 22 21 22 23 24 25 25 25 26 26 27 28 29 30 31 31 30 30 30 31 31 31 30 31 31 31 31 31 31 31 31 28 25 26 27 29 29 25 22 22 22 23 21 21 23 24 26 27 27 29 32 32 30 27 24 22 22 22 21 19 19 20 20 19 21 24 24 21 22 25 26 25 24 23 21 19
24 21 19 19 19 19 19 18 18 18 19 20 20 20 20 21 22 21 21 21 23 24 25 26 26 26 27 28 30 30 30 29 29 29 29 29 29 29 28 26 23 23 25 27 30 28 20 17 19 21 21 20 21 24 25 26 26 28 30 32 31 28 25 22 20 21 20 18 17 19 20 20 20 21 22 21 19 21 24 25 25 24 23 22 19
22 19 17 17 17 17 17 17 17 18 18 17 17 19 20 20 20 19 18 19 20 21 21 21 21 22 23 25 26 26 26 25 24 24 25 26 25 24 22 20 20 22 25 28 29 25 19 18 19 19 19 19 22 24 25 26 27 29 31 30 28 26 23 20 19 19 18 16 17 19 20 21 20 20 20 19 19 20 22 24 24 24 24 22 20
20 18 17 16 16 17 17 17 18 17 16 15 15 16 18 18 18 17 17 18 18 17 16 15 16 18 18 19 19 19 18 18 18 18 18 18 17 16 16 18 20 22 25 27 25 23 21 21 20 19 18 19 22 25 27 28 28 29 30 28 27 24 21 19 18 17 15 15 17 19 19 21 21 20 19 18 18 19 21 23 23 24 24 23 22
19 18 18 17 17 18 18 18 18 17 15 13 13 14 16 16 16 16 15 15 14 13 11 10 12 12 12 12 13 13 13 13 12 11 10 10 11 13 15 17 19 21 22 23 22 22 22 21 20 19 17 18 22 25 28 29 28 29 29 27 26 22 19 18 17 16 14 14 18 18 19 20 20 21 21 21 20 19 20 21 23 24 24 24 23
19 19 18 17 18 19 19 20 20 19 16 12 12 14 14 14 14 15 14 14 12 11 11 10 10 10 9 10 11 10 9 8 7 8 9 10 12 14 15 17 19 20 20 21 22 22 21 21 21 20 18 19 22 25 27 28 29 30 29 27 25 20 18 17 17 15 13 14 18 19 19 19 19 21 22 23 23 21 21 21 23 24 24 24 24
20 20 19 19 20 21 21 22 23 22 17 13 12 12 11 11 12 13 15 14 14 13 12 11 11 11 11 11 10 8 7 8 9 11 13 14 14 15 16 18 19 19 20 21 22 22 22 23 23 23 22 22 24 26 27 28 30 30 28 27 23 19 18 17 16 15 13 14 18 20 21 19 19 20 21 23 24 23 23 23 23 23 23 23 23
21 21 21 21 22 22 22 24 25 22 18 14 12 9 9 11 11 11 13 14 15 14 13 12 11 12 12 11 10 9 10 12 13 14 16 17 18 17 17 17 17 18 19 20 22 23 25 25 26 26 25 24 25 26 28 30 30 29 28 25 21 18 18 17 16 14 13 15 18 20 21 20 20 20 20 21 22 23 23 24 24 24 22 22 23
22 23 23 24 24 23 24 25 25 22 18 16 13 9 8 10 11 11 11 11 11 11 11 11 11 11 12 12 12 13 14 16 17 18 18 19 20 20 20 19 18 18 19 21 22 24 26 27 28 27 26 26 27 28 30 31 30 28 26 22 19 18 18 16 16 14 13 15 19 20 21 20 20 21 22 22 21 21 22 23 24 24 22 22 23
24 26 26 26 25 24 24 25 24 22 19 18 16 15 12 9 10 11 10 9 8 6 6 7 8 9 11 12 14 15 17 19 19 20 20 20 21 22 22 22 21 21 21 22 23 23 24 25 25 25 26 27 29 30 30 30 29 27 24 20 18 18 18 17 17 16 15 16 19 19 19 19 20 21 22 23 23 22 22 23 23 23 23 22 23
25 27 27 28 26 24 23 24 24 23 22 20 18 19 17 13 11 11 11 11 9 7 5 5 6 7 10 12 14 16 18 19 20 20 21 22 23 23 24 24 24 24 24 24 24 24 23 24 24 26 27 28 29 28 28 28 27 25 22 19 18 18 18 18 18 17 16 17 19 19 19 19 19 20 22 23 24 24 24 24 24 24 24 24 25
26 27 27 28 27 24 22 23 24 24 23 22 20 20 20 18 14 13 13 13 12 11 9 8 7 8 10 12 14 16 18 19 20 21 21 22 23 24 25 26 27 27 27 27 27 26 26 26 27 28 28 28 28 28 27 26 25 24 21 19 19 19 19 19 19 19 18 19 19 19 19 20 20 20 22 23 24 24 24 25 25 25 25 25 26
26 26 27 28 27 25 24 24 25 25 24 23 21 20 20 19 17 15 14 13 15 16 15 13 11 9 10 11 13 14 16 18 19 20 20 21 21 22 23 24 26 27 28 28 28 28 28 29 29 29 29 29 29 27 25 24 24 23 21 19 20 21 21 21 21 21 21 21 20 20 20 21 21 21 22 23 24 24 24 25 26 26 26 26 25
26 26 27 27 27 26 25 25 26 26 26 25 23 21 20 19 18 17 16 16 17 17 17 15 14 13 12 12 13 14 15 17 18 18 18 18 19 19 19 21 22 24 26 27 28 28 29 30 30 30 30 29 28 25 23 23 23 22 21 20 21 22 23 24 24 24 24 23 21 21 21 21 22 21 22 22 23 23 23 24 25 25 25 25 24
27 27 27 27 28 27 27 27 27 27 27 27 25 23 22 21 20 19 19 20 19 18 18 17 15 15 14 13 14 15 16 17 18 19 19 20 20 20 19 20 21 23 25 26 26 27 27 28 29 29 29 27 25 24 23 23 22 21 21 20 20 22 24 25 26 26 26 24 23 22 22 22 21 21 22 23 22 23 23 23 24 24 24 23 22
28 28 28 28 29 29 30 29 29 29 29 28 26 25 25 24 23 22 22 22 21 20 20 19 18 17 16 16 16 17 18 18 19 20 20 21 21 21 21 22 23 24 26 27 27 27 26 26 27 27 26 24 23 24 24 24 22 20 19 19 19 21 24 25 26 27 27 27 26 24 22 21 20 20 22 23 24 23 22 23 24 24 25 24 20
32 31 31 30 30 30 31 32 31 31 30 30 28 27 27 27 26 26 25 24 24 23 22 22 22 21 20 20 20 20 20 21 21 22 22 22 22 22 22 23 24 26 27 28 29 29 28 26 24 24 23 23 24 25 25 24 21 20 19 19 19 21 23 25 26 27 28 28 28 26 23 22 23 22 22 23 25 25 23 25 28 26 27 26 21
35 35 34 34 33 32 32 32 33 32 32 31 30 30 29 29 29 28 28 27 26 25 25 25 25 24 23 23 23 22 22 22 23 24 24 24 24 23 23 24 26 27 27 28 28 29 28 26 24 24 25 26 26 26 25 24 22 21 20 20 19 21 23 25 26 27 28 28 28 27 26 27 26 25 23 22 24 25 24 28 30 28 28 26 21
36 37 37 37 36 35 34 34 34 33 33 32 32 32 31 31 31 30 29 29 28 27 27 27 27 27 26 26 25 24 23 23 23 24 25 26 27 26 25 26 27 28 28 27 27 27 27 26 27 28 29 29 28 27 26 24 23 24 24 23 22 22 23 24 25 26 27 28 28 29 30 30 29 27 25 23 24 25 26 28 30 28 28 26 23
37 37 38 38 37 37 37 36 35 34 34 34 33 33 33 33 32 31 31 30 30 30 29 28 28 29 29 28 28 27 26 26 25 25 26 28 29 29 27 27 27 28 27 26 26 27 27 28 29 30 31 31 30 29 28 28 28 28 28 28 26 25 25 25 26 26 27 28 29 30 31 31 31 30 27 26 26 27 28 30 30 29 27 25 24
37 37 38 38 38 38 38 38 37 36 36 35 35 35 34 34 34 34 33 33 33 33 32 31 30 30 30 31 31 31 30 30 29 28 28 29 30 30 29 28 27 28 28 28 28 29 30 30 30 31 32 33 33 33 33 33 33 33 32 32 31 29 28 28 27 27 28 29 31 32 32 32 33 32 30 29 30 29 30 31 31 31 29 26 25
38 38 39 39 39 39 39 39 39 39 38 38 37 37 37 37 37 36 36 36 36 36 35 34 33 33 32 33 33 33 33 33 32 31 30 30 30 31 31 30 30 31 32 32 32 32 32 33 33 33 34 35 37 37 37 37 37 37 35 35 34 33 31 31 30 29 30 32 33 34 34 33 34 34 34 34 33 32 32 33 34 34 31 29 28
39 40 40 40 40 40 40 40 40 41 41 41 41 41 41 40 40 40 40 39 39 38 38 38 37 37 36 36 35 35 35 35 34 33 33 32 32 32 33 33 33 34 35 36 35 35 35 36 36 36 37 38 39 40 41 40 40 39 39 38 38 36 35 35 34 33 33 35 36 36 36 36 36 36 36 36 36 35 34 35 37 36 35 34 33
40 41 41 41 41 41 41 41 42 42 43 43 43 44 44 44 44 43 43 43 42 41 41 41 40 40 40 40 39 39 38 38 37 37 36 36 35 35 35 35 36 36 37 38 39 38 38 38 39 39 40 40 41 42 42 42 41 40 40 40 40 40 40 39 38 38 38 39 40 40 40 40 39 39 38 37 38 37 37 37 38 38 38 39 38
40 41 42 41 42 42 42 42 43 44 45 45 45 45 46 46 46 45 45 45 44 43 43 43 43 43 44 44 44 43 43 42 41 41 40 40 40 39 39 39 40 40 40 41 41 41 40 40 41 41 42 42 42 42 42 42 41 41 42 43 44 45 45 45 45 45 45 46 46 45 45 44 42 41 41 40 39 39 39 39 39 40 42 42 42
38 40 41 41 41 42 42 42 42 43 44 45 46 47 47 47 48 48 47 47 46 46 46 46 46 47 47 47 47 47 46 46 45 45 45 45 44 44 44 45 45 45 46 45 45 45 45 45 45 45 45 45 45 45 45 46 46 47 47 49 50 51 52 53 53 53 53 53 52 51 50 48 46 45 44 42 42 41 40 41 42 43 44 45 45
37 39 40 42 43 43 43 42 42 41 41 42 43 44 46 48 49 50 50 50 49 48 48 49 50 50 50 50 50 49 50 50 50 50 50 50 49 49 48 49 51 51 52 52 51 51 51 51 51 50 50 50 50 50 50 50 52 52 53 54 55 57 58 58 58 58 58 57 56 55 53 52 49 48 46 45 45 44 43 44 45 45 46 47 47
37 39 40 41 42 43 44 44 44 43 42 41 42 43 44 46 47 49 50 51 50 50 50 52 53 53 53 53 53 53 54 54 54 55 55 54 54 54 54 54 55 56 57 58 58 56 55 56 56 57 57 56 56 56 56 56 56 57 58 59 60 61 61 62 62 62 62 61 59 57 56 54 52 50 49 47 47 47 46 45 46 46 47 47 47
36 38 39 40 41 41 42 42 43 44 45 45 46 46 47 47 47 47 48 49 49 50 51 52 53 53 54 54 54 55 57 58 58 59 59 59 59 58 58 58 59 60 60 61 62 61 60 59 60 61 62 62 62 62 62 62 62 62 63 64 65 66 66 66 66 65 65 64 62 60 58 56 54 52 51 49 50 50 48 46 46 46 47 48 48
35 37 38 39 40 40 40 40 41 42 44 46 48 49 50 50 49 49 48 49 49 50 52 54 55 56 56 57 56 57 58 59 60 61 62 62 63 62 62 62 62 63 64 64 65 65 65 64 64 65 66 67 67 67 68 68 68 68 69 70 70 71 71 70 69 68 67 66 64 62 60 58 56 54 52 52 53 52 51 49 48 47 48 49 48
35 36 38 39 40 40 39 39 39 41 42 44 45 47 49 49 50 50 50 51 51 51 52 53 54 56 57 59 60 59 60 61 61 62 63 64 65 65 65 65 65 66 67 67 68 69 70 70 69 69 70 71 72 71 72 72 72 72 72 73 73 74 73 73 71 70 69 68 66 64 61 59 57 55 54 55 56 55 54 53 52 52 51 51 48
37 38 39 40 40 40 40 41 42 43 44 44 44 45 45 46 48 49 50 51 51 50 49 50 52 53 54 59 62 61 61 62 62 63 64 65 66 66 67 67 68 68 69 70 71 72 74 75 75 75 75 76 76 76 75 75 75 74 74 74 75 75 75 74 73 72 70 69 68 66 64 61 59 56 56 57 58 57 56 55 56 56 56 55 53
34 38 40 41 42 42 42 42 43 44 43 42 42 43 44 44 45 45 46 48 49 50 50 51 53 54 55 59 62 61 61 62 62 64 65 66 67 68 69 69 69 70 71 72 73 74 76 78 79 79 79 79 79 79 78 77 76 75 74 74 75 75 75 75 75 74 72 71 70 69 68 65 62 59 59 59 60 59 59 58 59 59 58 58 57
27 31 35 39 42 44 44 44 43 42 42 43 44 45 46 47 46 46 47 49 50 51 52 53 54 55 55 58 60 60 61 62 62 63 64 65 67 68 69 70 71 71 71 72 72 73 73 75 76 77 77 78 78 79 78 77 76 75 73 73 73 74 75 75 76 76 75 73 72 72 71 69 67 64 63 63 63 61 59 59 61 62 61 61 60
22 25 28 31 36 40 43 45 45 44 44 45 47 48 49 49 49 49 50 52 52 51 51 51 51 52 53 54 55 55 56 58 58 58 58 59 61 63 65 65 65 65 65 64 64 65 66 68 69 71 73 74 74 75 74 74 74 74 72 71 71 72 72 73 74 75 76 75 74 73 73 72 70 68 67 65 64 61 56 54 56 58 59 60 62
21 23 24 25 28 32 37 40 43 44 45 46 48 48 48 48 49 48 47 46 47 48 48 47 46 46 46 47 48 49 50 51 52 52 52 52 53 55 57 58 58 58 58 57 57 58 60 62 64 66 69 71 71 71 71 70 70 71 70 70 70 70 70 71 72 73 74 74 74 74 73 73 72 70 69 67 65 63 59 56 56 55 53 53 55
22 23 23 23 24 25 29 33 36 39 42 45 47 46 45 47 48 47 44 41 40 40 41 43 44 44 43 43 45 46 46 47 48 48 47 47 48 50 51 52 52 53 54 55 55 56 58 60 62 64 67 69 70 69 69 68 68 68 68 68 69 70 70 70 71 72 72 72 73 73 73 73 73 72 70 68 67 66 65 66 66 65 61 56 52
25 25 25 25 25 24 25 27 29 31 34 38 41 41 43 46 48 48 48 47 45 42 39 38 40 42 43 45 45 45 45 46 45 43 43 47 49 51 51 53 54 55 56 57 58 58 59 60 62 63 65 67 68 68 67 66 65 66 66 65 65 67 68 68 69 70 70 71 71 72 72 72 72 72 70 69 68 67 68 70 72 72 72 69 64
27 27 27 26 26 26 25 25 26 27 29 33 36 39 42 46 48 50 51 52 53 52 49 47 46 46 47 48 48 49 50 50 48 48 51 54 56 56 57 58 58 59 59 59 59 58 58 58 58 59 60 62 63 64 65 64 63 62 62 62 61 62 64 65 66 66 66 67 68 69 69 70 70 70 70 69 69 69 69 71 73 74 75 74 73
29 30 30 28 27 27 26 26 25 26 27 30 34 38 43 46 49 51 53 54 54 55 55 55 54 54 54 54 55 57 58 57 56 58 60 61 60 60 61 61 61 60 59 57 56 56 55 53 52 53 54 55 57 57 59 60 60 60 59 59 59 60 61 62 64 64 64 64 65 65 66 66 66 67 68 69 70 70 71 72 73 75 77 77 76
31 33 33 32 31 30 28 27 26 25 26 28 31 37 43 47 50 52 54 55 56 56 57 58 58 58 59 59 61 62 62 61 62 63 64 64 63 64 64 63 62 60 57 55 54 53 51 49 49 48 49 50 51 52 53 55 57 58 59 59 59 59 60 60 62 64 64 64 64 64 64 64 64 63 63 64 65 66 68 70 73 74 77 78 78
32 35 36 35 35 34 32 30 28 26 24 26 28 32 38 44 49 53 55 56 57 58 59 59 60 61 62 63 64 64 64 64 65 65 66 66 66 65 64 63 61 58 54 52 51 49 47 45 44 43 43 45 46 47 48 51 53 55 57 59 60 60 61 61 61 63 64 64 64 64 65 65 64 63 62 61 61 61 62 64 67 71 74 77 79
33 36 38 38 37 37 36 35 32 29 26 23 24 28 32 37 42 47 51 54 57 59 61 62 63 64 65 66 66 67 67 66 66 67 67 67 66 65 64 62 59 55 52 50 47 46 43 41 41 41 41 42 43 44 45 47 49 51 53 55 57 58 60 62 63 64 64 64 64 64 65 65 65 64 64 64 63 63 62 62 63 65 69 73 76
34 37 39 40 40 39 38 37 36 34 31 26 23 23 26 30 35 39 42 45 50 54 56 58 60 62 64 65 66 66 66 65 66 66 65 65 65 64 63 60 55 52 50 47 44 43 42 40 40 41 41 42 44 45 45 46 48 49 51 52 53 53 55 58 61 63 64 64 64 64 64 65 66 65 66 66 66 66 66 66 66 66 67 69 72
36 38 40 41 41 42 41 40 38 37 35 33 28 24 22 23 27 32 36 40 44 48 50 52 54 55 57 58 59 60 61 62 63 63 63 64 64 62 59 55 52 51 49 44 42 42 41 41 40 40 41 43 45 46 46 46 47 49 50 52 52 52 53 55 57 59 60 62 63 64 65 66 67 67 67 67 67 68 68 69 69 69 70 70 71
38 39 41 42 43 43 44 44 42 39 39 38 36 32 27 24 23 26 30 34 39 44 47 49 50 51 51 51 52 53 55 57 58 59 60 61 59 56 53 52 51 52 49 45 44 44 43 43 43 42 43 43 44 46 46 46 47 48 49 51 51 51 52 54 55 56 56 58 60 62 63 66 67 68 68 68 68 69 69 70 71 72 72 73 73
40 41 43 44 44 45 46 46 45 43 41 41 41 40 37 33 30 28 28 29 32 35 39 42 45 47 48 49 49 49 50 51 52 52 53 54 53 51 51 51 52 52 50 47 46 46 46 46 47 46 46 45 45 46 46 46 46 47 48 48 48 49 50 51 52 53 54 54 55 56 58 62 64 66 67 68 68 69 69 69 70 71 72 72 73
41 43 44 45 46 46 47 48 47 46 45 44 44 44 43 41 39 36 34 33 32 33 34 36 39 42 45 46 46 46 47 48 48 48 50 51 51 51 51 52 53 52 51 49 49 49 50 50 51 49 47 47 47 47 47 45 45 45 47 47 46 46 48 49 50 52 53 52 52 53 55 57 59 62 63 65 66 66 66 66 67 68 69 70 71
Wind_Direction
276 273 269 265 261 257 254 253 254 254 255 256 256 256 257 257 258 258 258 258 258 258 258 259 259 259 259 259 260 261 261 262 263 264 263 261 259 260 261 265 271 274 272 260 246 243 244 250 256 256 257 267 281 287 285 285 295 305 310 315 320 323 324 324 326 330 333 333 332 332 332 329 322 319 324 333 338 337 335 334 335 337 338 342 348
274 272 269 266 263 259 256 255 256 256 258 259 260 262 262 262 262 261 261 261 262 262 262 262 261 261 261 261 262 262 263 262 261 260 258 257 257 260 262 267 271 271 265 252 242 242 242 246 252 254 259 268 280 284 282 286 296 304 308 314 320 323 323 323 325 330 334 335 335 336 337 333 327 323 325 333 338 338 337 337 339 341 341 344 349
274 272 270 269 266 263 259 257 256 257 259 263 266 267 266 265 263 263 263 264 265 265 264 263 262 261 261 260 261 261 261 259 258 256 257 257 258 261 263 267 267 263 256 244 237 239 240 243 251 257 260 267 278 281 281 287 296 302 308 315 319 322 322 322 325 329 333 336 337 340 342 339 332 326 326 333 337 336 337 339 342 344 345 346 351
272 272 272 272 269 266 261 258 257 259 263 267 268 267 263 260 260 261 263 265 265 265 264 264 263 262 260 259 259 258 258 257 257 257 257 258 259 260 261 262 259 254 249 241 235 239 244 247 254 258 259 265 274 278 280 286 294 301 308 314 319 321 321 321 323 327 333 336 338 346 350 347 338 329 328 332 334 334 335 339 343 347 347 348 352
272 272 271 270 270 267 261 257 257 261 264 264 262 259 257 257 259 262 266 269 270 270 269 267 267 265 263 260 259 258 257 256 255 256 256 256 256 257 257 256 253 248 242 237 237 243 249 255 261 261 259 264 271 274 278 285 292 300 308 314 318 319 319 320 321 325 331 334 340 352 358 355 347 338 332 331 331 333 334 338 345 348 349 349 352
271 270 267 266 264 261 255 252 254 257 256 255 254 253 254 258 262 265 268 272 275 275 272 269 269 268 265 261 258 255 253 252 252 252 252 252 253 254 254 252 248 242 236 233 238 243 249 257 262 260 259 263 268 271 276 283 291 299 307 313 316 317 316 317 319 324 328 331 342 356 3 3 357 348 339 332 331 333 333 339 346 349 349 349 351
271 266 261 259 256 251 249 249 249 247 246 250 256 261 264 265 266 269 271 275 278 276 272 272 271 268 264 259 253 249 246 247 249 251 252 252 253 254 253 249 244 239 235 235 238 242 247 254 257 255 256 261 265 269 274 282 290 298 306 311 313 312 311 313 316 321 324 329 343 354 1 6 3 357 349 340 336 334 335 341 348 349 350 350 350
267 261 254 252 249 247 247 247 242 234 238 251 267 279 280 274 268 271 276 277 276 273 274 279 276 268 260 252 245 239 238 242 244 246 251 253 250 247 246 245 242 240 238 238 241 243 246 252 254 254 257 260 263 267 273 281 289 298 304 307 310 308 307 311 313 317 318 330 343 346 353 3 4 1 358 352 345 339 338 344 349 350 351 352 353
260 252 247 245 245 246 247 245 236 229 234 252 270 280 281 275 268 268 272 273 271 271 276 280 277 270 262 252 242 232 234 246 242 232 237 241 236 234 234 235 237 239 240 241 243 242 244 250 252 254 259 260 262 268 275 282 290 297 301 304 308 305 305 309 311 312 314 330 340 339 344 355 360 360 0 358 354 347 345 347 351 351 352 354 356
247 242 239 238 242 244 245 242 235 230 232 246 259 272 280 275 270 268 267 267 267 269 272 271 269 266 260 250 237 227 234 244 237 227 227 228 228 229 230 232 234 237 240 242 241 240 243 250 253 258 262 262 264 270 276 284 291 296 298 302 306 305 305 308 308 307 309 327 336 336 340 346 351 354 356 358 357 354 353 353 354 354 354 356 359
236 233 232 236 241 242 240 238 236 235 235 241 250 268 283 275 271 272 269 267 265 263 264 262 258 257 252 241 226 219 227 233 233 229 227 227 227 229 232 234 236 236 238 240 240 242 246 251 256 263 267 266 267 272 279 286 291 293 295 301 308 308 306 305 304 301 304 325 335 337 339 341 343 345 347 350 353 354 356 359 359 358 357 359 1
229 228 230 236 239 238 237 234 235 237 236 238 244 252 268 273 273 275 276 273 267 262 258 252 247 246 244 236 226 220 222 226 231 234 233 233 233 233 235 238 241 241 242 243 244 247 250 254 259 264 268 267 269 275 282 287 289 290 293 301 309 311 307 301 298 293 298 322 334 337 338 339 339 338 338 341 344 347 350 355 360 1 1 1 1
228 232 238 244 242 238 237 234 234 235 233 235 243 246 248 259 269 272 272 270 266 267 266 258 249 245 244 242 239 234 230 229 230 235 238 240 240 240 240 239 241 243 245 247 248 250 253 256 260 264 266 269 273 278 283 285 286 287 292 300 307 309 305 298 293 288 294 318 330 333 335 336 336 335 334 333 335 337 339 342 347 352 354 354 354
229 237 245 250 247 242 241 238 234 233 232 234 243 249 248 248 253 257 261 261 259 262 271 278 277 269 258 251 249 245 241 238 237 239 242 245 247 247 247 245 244 245 247 249 252 254 256 259 262 265 268 271 275 278 281 283 283 285 291 298 302 302 300 295 292 288 292 311 324 326 330 333 333 333 332 330 330 330 331 332 334 337 340 342 343
233 240 247 250 248 244 242 240 238 236 236 238 245 251 252 252 250 249 256 262 260 253 245 246 257 270 269 261 255 252 247 244 244 246 248 250 251 251 251 251 251 251 252 254 257 259 262 264 265 267 269 272 274 277 279 280 281 285 291 296 296 295 294 292 292 288 290 304 315 318 324 329 330 329 329 329 329 329 328 326 327 329 332 334 335
239 244 248 249 246 244 241 239 240 242 243 245 249 252 254 256 254 249 251 258 259 252 242 237 239 247 257 261 260 258 255 251 249 250 251 251 251 251 252 253 253 254 256 257 260 263 266 267 267 268 269 271 273 275 276 278 282 287 290 293 292 291 290 289 289 288 289 296 304 311 319 325 326 325 325 325 326 327 327 325 324 324 326 329 332
241 245 248 248 246 244 241 240 241 244 247 249 252 254 253 254 254 247 242 246 255 253 246 245 249 249 250 254 257 258 257 254 251 250 250 249 249 250 251 252 253 254 256 258 260 263 265 267 267 268 269 271 273 272 272 278 284 288 289 290 290 288 287 286 286 287 288 291 297 304 313 321 323 320 317 318 321 324 324 324 323 321 322 325 329
241 244 246 248 248 246 244 243 244 246 248 249 252 253 253 253 254 250 245 248 254 253 248 248 251 249 247 249 252 254 254 254 252 251 250 250 250 251 253 254 254 255 255 256 257 259 262 265 266 266 267 269 269 268 270 277 283 285 285 287 287 284 282 282 283 285 286 287 291 298 306 313 315 312 309 309 312 316 318 320 321 320 321 323 326
241 244 246 247 248 248 246 245 245 246 248 249 250 251 252 253 254 255 254 255 257 257 256 256 255 252 248 247 249 251 253 253 253 253 253 254 254 255 256 257 257 258 258 259 259 259 261 264 265 264 264 265 266 266 269 276 281 283 284 285 284 281 278 278 281 283 284 286 288 294 300 303 301 299 301 300 301 306 311 314 316 319 321 320 321
241 243 245 247 248 248 248 246 246 246 247 248 249 249 251 252 253 255 256 258 259 260 261 262 263 262 260 258 257 257 256 254 253 253 253 255 257 259 260 261 261 262 263 265 266 266 265 266 266 263 263 265 266 266 269 273 278 280 283 286 285 282 279 278 279 280 282 285 287 290 293 295 294 291 293 294 296 300 302 305 310 316 320 317 314
244 243 244 245 246 247 248 247 247 247 247 247 248 248 249 252 253 255 256 258 259 260 262 263 265 266 266 266 266 265 263 259 256 253 251 252 254 258 261 262 262 263 265 267 270 271 269 268 265 264 266 267 266 265 268 272 275 276 279 283 284 282 280 279 279 280 281 284 286 286 285 290 294 290 289 294 297 298 295 298 303 309 316 315 308
248 246 245 245 246 246 247 248 248 248 249 248 248 248 249 252 254 255 257 258 259 259 260 261 263 264 265 267 268 267 266 265 264 260 255 252 252 257 261 262 262 261 263 266 269 271 270 268 266 266 269 269 266 266 269 273 276 276 274 277 279 277 277 278 279 281 282 284 285 283 282 289 294 292 290 293 294 293 290 292 295 299 308 311 305
249 249 248 248 248 248 248 249 250 250 251 251 251 252 252 253 255 256 256 258 259 260 259 259 260 262 263 264 265 265 266 268 270 268 263 257 255 257 260 261 260 260 261 265 268 269 269 268 267 267 269 270 269 270 272 274 279 278 273 273 275 274 275 277 278 280 281 283 282 280 283 289 293 292 291 291 291 288 284 285 288 291 299 303 301
248 249 250 250 251 251 251 251 252 253 253 254 256 256 257 257 258 258 258 258 259 260 261 261 261 261 261 261 262 263 264 266 270 271 269 264 259 258 258 257 257 260 263 266 269 270 269 268 268 268 269 270 271 272 273 274 278 278 272 270 271 273 274 276 277 278 278 278 278 279 284 289 290 289 289 288 288 286 284 283 284 287 292 293 293
249 249 250 251 252 252 253 253 254 255 257 258 259 259 260 260 260 261 261 261 261 262 262 263 262 262 261 261 261 262 263 265 267 268 268 266 262 259 257 256 256 260 265 268 269 270 271 272 271 271 270 270 271 272 273 275 278 278 273 270 270 272 274 276 277 276 275 274 274 277 283 286 286 286 285 285 284 284 284 284 284 286 289 291 290
252 252 251 252 252 253 254 254 254 255 256 258 259 260 261 262 262 262 263 263 264 264 264 264 264 264 263 262 261 262 263 264 264 265 264 263 261 259 259 259 258 261 266 268 269 271 272 274 273 273 272 271 272 272 274 276 278 277 274 271 270 271 274 276 276 275 273 272 274 277 281 282 283 283 283 283 283 282 281 283 284 283 285 289 289
254 255 255 255 255 256 256 256 256 256 257 257 258 259 260 261 262 263 263 264 264 264 264 264 264 264 264 263 262 261 260 260 260 261 261 260 260 259 260 262 263 264 267 270 272 273 274 274 273 273 272 272 273 274 276 277 277 276 274 272 270 271 274 276 276 275 274 274 276 279 281 280 280 281 281 281 281 281 281 282 281 280 281 285 287
256 256 256 256 257 257 258 259 259 259 258 259 259 259 258 258 259 260 261 262 262 262 262 263 263 263 263 263 263 262 261 260 259 259 259 259 259 259 260 263 265 266 267 269 271 273 273 272 271 271 271 271 271 273 275 275 275 274 273 272 271 273 275 277 277 277 276 277 279 281 281 280 279 278 279 279 279 280 280 280 278 277 279 281 283
258 257 257 257 257 258 259 260 260 260 260 259 259 259 259 258 258 258 258 258 258 258 259 260 261 261 262 263 263 264 264 263 262 262 261 260 259 259 259 261 263 264 265 266 267 269 270 270 270 270 270 270 270 270 271 272 272 272 272 273 273 275 277 278 279 280 279 280 281 281 281 280 278 277 277 277 277 278 278 277 277 277 279 280 280
259 261 260 259 258 259 260 260 261 262 262 260 259 259 258 258 258 257 257 257 257 257 257 257 258 259 261 262 263 264 265 265 264 264 263 262 262 261 260 261 263 264 266 266 266 267 269 271 271 271 272 272 272 271 271 271 272 272 273 275 276 277 278 279 280 281 280 280 280 280 279 279 278 277 276 275 275 276 277 276 275 276 277 278 278
259 261 262 262 262 262 262 262 262 262 262 261 260 260 259 259 259 259 259 259 259 259 260 260 260 261 262 262 263 264 264 264 264 264 264 264 264 264 263 263 263 265 266 267 267 267 268 270 271 272 273 273 274 274 274 274 273 273 274 274 275 276 277 278 278 279 278 278 278 278 277 277 276 275 274 273 273 274 274 275 274 274 275 275 275
259 260 262 264 265 265 265 265 264 264 263 262 262 261 261 261 261 262 262 262 263 263 264 264 265 265 265 265 265 265 265 264 264 265 265 265 266 266 265 265 265 266 266 267 268 268 268 269 270 272 273 274 275 276 276 276 275 275 274 273 274 274 275 276 276 276 276 276 276 276 275 275 275 274 272 272 271 271 271 272 272 272 272 272 274
258 258 260 262 264 265 266 266 266 266 265 264 263 263 262 262 262 263 264 264 264 265 266 267 267 268 268 267 267 266 265 265 265 265 265 265 265 265 265 266 266 266 266 266 268 269 269 269 270 271 273 274 275 276 276 276 276 275 275 274 274 274 275 275 275 275 274 274 274 274 273 273 273 272 272 270 269 268 269 269 268 269 270 272 274
259 258 258 259 261 263 264 265 265 265 265 265 265 266 266 266 266 265 265 265 265 266 266 266 266 266 266 265 264 264 264 265 265 266 266 266 266 265 265 266 266 266 266 266 267 268 269 269 269 270 271 272 273 274 274 274 274 274 273 273 273 273 273 273 273 273 272 272 271 271 271 271 271 271 270 269 268 268 267 266 266 267 269 272 274
261 260 259 259 259 259 260 261 262 262 264 265 266 266 267 267 267 267 266 266 264 263 261 261 260 261 261 262 262 262 263 265 267 267 267 267 267 266 266 266 266 266 267 267 267 268 269 269 269 269 270 271 271 272 273 273 273 272 271 270 270 270 270 270 270 270 269 269 269 269 268 268 268 269 268 268 268 267 267 267 267 267 268 270 272
263 262 262 261 260 259 258 258 258 260 261 262 263 263 262 263 265 266 265 263 260 257 256 257 258 260 261 263 265 265 265 266 267 268 268 268 267 267 266 266 266 267 267 268 268 268 269 270 270 270 270 270 271 271 272 272 271 270 269 269 268 268 268 268 268 268 267 267 267 267 267 266 265 265 264 266 267 267 268 268 268 267 267 268 269
273 268 265 263 262 261 260 258 258 257 259 260 261 261 262 263 264 263 262 261 259 259 259 260 261 262 263 264 266 268 268 267 267 267 267 267 267 266 266 266 267 267 267 267 268 268 269 270 271 271 271 270 270 270 270 270 270 269 269 268 268 267 267 267 267 267 266 266 265 265 265 265 264 263 262 263 265 267 269 270 269 267 266 266 267
297 286 276 269 265 263 262 261 260 259 259 260 261 261 262 263 263 262 262 263 263 263 263 263 263 264 264 265 267 268 270 270 269 268 267 268 268 268 268 268 269 268 269 269 269 270 271 271 271 272 272 271 271 270 270 270 270 269 269 268 268 267 267 266 265 265 266 265 264 264 264 264 264 263 262 262 263 264 265 267 268 267 266 265 264
322 310 298 286 276 270 266 263 261 261 261 261 261 262 262 261 261 261 261 263 265 264 263 263 263 264 265 267 268 269 270 271 271 270 270 270 270 270 270 270 270 270 270 271 272 272 273 274 274 273 273 272 271 270 270 269 268 268 268 268 267 266 266 266 265 265 264 264 264 263 263 263 263 262 262 262 261 260 259 258 260 262 263 264 264
340 333 323 312 298 285 275 268 264 262 261 261 261 261 259 259 258 257 256 257 261 264 264 263 263 264 264 266 268 270 272 275 276 277 276 276 277 277 277 276 276 275 275 275 277 278 278 278 277 276 274 272 271 270 270 269 267 266 266 266 267 266 266 265 265 265 264 263 263 262 262 261 261 262 262 261 260 258 256 255 255 257 257 256 259
345 344 340 332 322 309 294 281 271 266 262 261 260 257 256 257 258 257 256 256 257 259 261 261 261 261 261 264 266 270 274 276 277 277 279 281 282 282 282 282 282 282 282 283 284 284 282 281 278 275 273 271 269 269 269 269 268 266 265 265 266 267 266 265 265 265 264 263 262 261 261 260 260 260 261 260 259 258 256 254 254 255 255 254 254
339 341 343 342 337 330 318 302 287 276 269 264 260 256 254 255 257 258 259 260 259 258 258 258 259 260 262 264 266 270 274 275 274 275 279 282 284 283 284 285 285 286 287 288 288 287 285 283 278 274 271 270 269 268 268 268 267 266 265 264 264 265 266 265 265 264 263 263 262 261 261 260 260 260 260 259 259 258 256 254 253 253 255 255 255
333 335 338 341 341 340 335 325 309 293 281 272 266 261 257 256 257 258 259 261 262 263 262 263 263 264 265 268 271 275 277 277 278 279 281 284 286 286 287 289 291 292 293 293 291 290 289 286 281 276 273 272 271 269 268 267 266 265 264 263 263 263 263 264 264 263 262 261 261 261 261 260 260 260 260 259 259 258 256 255 253 252 253 255 255
328 330 332 335 338 339 340 338 329 314 297 285 274 267 263 262 261 261 261 262 263 265 267 268 269 270 272 274 276 278 279 280 281 281 283 285 286 288 290 293 295 297 297 295 294 294 291 287 284 281 278 276 274 272 270 268 266 265 264 263 262 261 261 261 262 262 262 260 260 260 260 259 259 258 258 258 258 258 257 256 254 253 252 253 253
323 325 326 329 333 335 337 339 339 334 319 301 287 277 270 268 267 266 266 266 266 267 269 270 272 273 274 275 276 278 279 280 281 281 283 285 287 289 291 294 296 297 296 295 295 294 292 289 286 285 284 282 281 278 275 272 270 268 266 264 263 261 260 260 260 260 261 260 260 259 259 259 258 257 257 256 256 256 256 255 255 254 253 252 252
318 320 322 324 327 330 333 335 337 340 336 323 305 291 282 276 273 272 271 271 271 271 271 272 273 273 274 275 276 277 278 279 280 281 283 285 287 289 291 293 295 294 293 293 292 291 290 289 289 289 289 287 285 282 280 277 275 272 270 268 266 264 262 261 259 259 259 259 258 258 258 258 257 257 257 256 255 254 254 254 254 254 254 253 253
314 315 316 319 322 324 327 331 333 336 338 336 325 309 294 285 280 278 277 276 275 274 274 273 273 274 274 274 275 277 278 279 280 282 284 285 287 288 290 291 291 289 290 290 289 287 287 288 290 291 292 291 288 285 283 281 278 275 273 270 269 267 266 264 262 261 260 258 257 256 256 256 256 255 255 255 255 254 254 254 254 254 254 254 253
310 311 311 314 318 320 322 325 329 332 334 335 333 326 312 298 288 281 277 276 275 275 275 275 275 275 276 276 277 278 279 280 281 282 283 284 285 287 288 288 286 286 288 288 286 285 286 288 291 291 293 294 292 289 288 286 283 279 275 272 270 269 267 266 265 264 263 261 259 256 256 256 255 255 255 254 254 254 254 253 254 254 254 254 253
305 307 307 310 314 317 318 320 323 328 331 333 333 331 325 317 305 292 283 279 278 277 276 275 276 277 278 279 279 280 280 280 280 281 282 283 284 284 284 284 284 285 287 287 286 288 290 292 294 294 295 297 295 291 290 290 288 284 279 275 272 270 269 267 266 266 265 264 262 260 258 257 256 256 256 255 255 255 254 254 254 254 254 253 253
301 302 303 306 309 313 314 316 319 323 327 329 332 332 331 327 322 315 306 298 292 287 284 281 279 278 278 279 279 280 281 281 282 282 282 282 282 281 281 281 282 285 287 287 287 290 293 295 296 296 297 300 297 294 293 293 291 287 284 280 275 272 270 269 268 268 267 266 264 263 261 259 258 257 257 257 257 257 256 255 255 254 254 253 253
297 298 299 301 305 309 311 312 315 318 321 325 328 331 332 331 328 325 322 318 311 305 298 292 286 282 280 280 280 281 282 283 284 284 284 282 281 280 280 281 282 284 286 287 288 290 292 293 295 296 298 300 299 296 295 295 291 286 284 281 278 275 273 271 270 269 268 267 266 264 262 261 259 258 258 258 258 258 258 257 256 255 255 254 253
Height
10773 10773 10772 10772 10772 10772 10773 10775 10776 10778 10779 10780 10780 10780 10781 10781 10782 10782 10782 10783 10783 10784 10785 10786 10788 10789 10790 10791 10792 10793 10795 10797 10798 10800 10801 10802 10803 10804 10806 10807 10808 10808 10808 10809 10809 10809 10810 10811 10811 10812 10813 10813 10813 10813 10813 10813 10812 10812 10811 10810 10808 10807 10805 10803 10802 10801 10799 10797 10794 10792 10790 10788 10786 10785 10784 10782 10780 10778 10776 10774 10772 10769 10767 10765 10764
10770 10770 10769 10769 10769 10770 10771 10772 10774 10775 10776 10777 10778 10778 10778 10779 10779 10779 10779 10780 10780 10781 10782 10783 10784 10785 10786 10787 10787 10789 10791 10793 10794 10796 10797 10799 10800 10801 10803 10804 10805 10805 10805 10806 10806 10807 10809 10809 10809 10810 10811 10811 10812 10812 10812 10811 10811 10810 10809 10808 10807 10806 10804 10803 10801 10800 10798 10796 10794 10792 10789 10787 10786 10785 10783 10782 10780 10778 10776 10773 10771 10769 10767 10765 10763
10766 10767 10766 10766 10767 10768 10769 10770 10772 10773 10774 10775 10776 10776 10776 10776 10776 10776 10776 10777 10777 10778 10779 10779 10780 10780 10782 10782 10783 10785 10787 10789 10791 10792 10794 10795 10797 10798 10800 10801 10801 10802 10803 10804 10804 10805 10806 10807 10808 10808 10809 10809 10810 10810 10810 10810 10809 10809 10808 10807 10806 10804 10803 10802 10801 10799 10797 10795 10793 10791 10789 10787 10785 10784 10783 10781 10779 10777 10775 10773 10771 10769 10767 10765 10763
10764 10764 10764 10764 10765 10766 10767 10768 10770 10771 10772 10773 10774 10774 10773 10773 10773 10773 10774 10774 10775 10775 10775 10775 10776 10777 10778 10779 10780 10781 10783 10785 10787 10789 10791 10792 10793 10795 10796 10797 10798 10799 10800 10801 10802 10802 10804 10805 10806 10807 10807 10808 10808 10808 10808 10808 10808 10807 10806 10805 10804 10803 10802 10801 10800 10798 10797 10795 10793 10791 10788 10786 10785 10783 10782 10780 10779 10777 10775 10773 10771 10769 10767 10765 10763
10761 10762 10762 10762 10763 10764 10766 10767 10769 10770 10771 10772 10772 10771 10771 10771 10771 10771 10772 10772 10772 10772 10772 10772 10772 10773 10775 10776 10777 10778 10780 10782 10784 10785 10787 10789 10790 10791 10793 10794 10795 10797 10798 10799 10800 10801 10803 10804 10804 10805 10805 10806 10806 10806 10806 10806 10806 10805 10805 10804 10803 10801 10800 10799 10798 10797 10796 10794 10792 10790 10788 10786 10784 10783 10781 10780 10778 10776 10774 10773 10771 10769 10767 10765 10763
10759 10760 10761 10761 10762 10763 10764 10766 10767 10768 10769 10770 10770 10769 10769 10769 10769 10769 10770 10770 10769 10769 10769 10769 10770 10770 10772 10773 10774 10775 10777 10779 10781 10782 10784 10786 10787 10789 10790 10792 10793 10795 10796 10797 10798 10800 10801 10801 10802 10803 10803 10803 10804 10804 10804 10804 10804 10804 10803 10802 10801 10800 10799 10798 10797 10796 10794 10793 10792 10790 10788 10785 10784 10782 10780 10779 10777 10776 10774 10772 10770 10768 10767 10765 10763
10757 10758 10759 10760 10761 10762 10763 10764 10765 10766 10767 10768 10768 10767 10767 10767 10767 10767 10768 10767 10767 10767 10767 10767 10768 10768 10770 10771 10772 10773 10775 10777 10778 10780 10782 10784 10785 10787 10788 10790 10791 10793 10794 10795 10797 10798 10799 10799 10800 10800 10801 10801 10802 10803 10802 10802 10802 10802 10802 10800 10799 10798 10797 10796 10795 10795 10793 10792 10791 10789 10787 10785 10783 10782 10780 10778 10777 10775 10773 10772 10770 10768 10767 10765 10763
10755 10757 10758 10759 10759 10760 10761 10763 10763 10764 10765 10765 10765 10765 10765 10765 10765 10765 10766 10765 10765 10766 10766 10766 10766 10767 10768 10769 10770 10772 10773 10775 10777 10779 10781 10783 10784 10786 10787 10789 10790 10791 10793 10794 10795 10796 10796 10797 10797 10798 10799 10799 10800 10800 10800 10801 10801 10801 10800 10798 10797 10796 10795 10795 10794 10793 10792 10792 10790 10788 10786 10784 10783 10781 10780 10778 10776 10774 10773 10771 10769 10768 10766 10765 10763
10753 10755 10756 10757 10758 10758 10760 10761 10761 10762 10763 10763 10763 10763 10763 10763 10763 10764 10764 10764 10764 10765 10765 10765 10766 10767 10768 10769 10770 10771 10773 10774 10776 10779 10780 10782 10783 10785 10786 10787 10788 10790 10791 10792 10793 10793 10794 10795 10795 10796 10797 10797 10798 10798 10799 10799 10799 10799 10798 10796 10795 10794 10794 10794 10793 10792 10791 10791 10789 10788 10786 10784 10782 10781 10779 10778 10776 10774 10772 10770 10769 10767 10766 10765 10763
10751 10753 10754 10755 10756 10757 10758 10758 10759 10760 10761 10761 10761 10761 10762 10762 10762 10762 10762 10763 10763 10764 10764 10764 10765 10766 10767 10768 10769 10771 10772 10774 10776 10778 10780 10781 10782 10783 10784 10785 10786 10787 10788 10789 10790 10791 10792 10793 10793 10794 10795 10795 10796 10796 10797 10797 10797 10796 10795 10795 10794 10793 10793 10792 10792 10791 10790 10790 10788 10787 10785 10783 10782 10780 10779 10777 10776 10774 10772 10770 10768 10767 10765 10764 10763
10749 10751 10752 10753 10754 10755 10756 10756 10757 10758 10759 10760 10760 10760 10760 10760 10761 10761 10761 10762 10762 10763 10763 10764 10764 10765 10766 10767 10768 10770 10772 10774 10775 10777 10778 10779 10780 10782 10782 10783 10784 10785 10786 10787 10788 10789 10790 10790 10791 10792 10793 10793 10794 10795 10795 10795 10795 10794 10793 10793 10792 10791 10791 10791 10790 10790 10789 10788 10787 10786 10784 10782 10781 10779 10778 10776 10775 10773 10772 10770 10768 10766 10765 10764 10763
10748 10749 10750 10750 10751 10752 10753 10754 10755 10757 10757 10758 10758 10758 10759 10759 10759 10760 10760 10761 10762 10762 10763 10763 10764 10764 10765 10766 10767 10769 10771 10772 10774 10775 10776 10777 10779 10779 10780 10781 10782 10783 10784 10784 10785 10786 10787 10788 10789 10790 10791 10791 10792 10793 10793 10793 10792 10792 10792 10791 10791 10790 10789 10789 10789 10788 10787 10787 10786 10785 10783 10781 10780 10778 10777 10775 10774 10773 10771 10769 10768 10766 10765 10764 10762
10746 10747 10748 10748 10749 10750 10751 10752 10754 10755 10755 10756 10757 10757 10758 10758 10758 10759 10760 10761 10761 10762 10762 10762 10763 10764 10764 10765 10766 10768 10769 10770 10772 10773 10774 10775 10776 10777 10778 10779 10780 10780 10781 10782 10782 10783 10785 10786 10787 10788 10788 10789 10790 10790 10790 10790 10790 10790 10790 10789 10788 10788 10787 10787 10787 10786 10786 10785 10784 10783 10782 10780 10778 10777 10775 10774 10773 10771 10770 10768 10767 10766 10765 10763 10762
10744 10745 10746 10747 10748 10749 10750 10751 10752 10753 10754 10755 10756 10756 10757 10757 10757 10758 10759 10760 10761 10761 10762 10762 10763 10763 10764 10764 10765 10766 10767 10769 10770 10771 10772 10773 10774 10775 10776 10777 10777 10778 10778 10779 10780 10781 10782 10783 10784 10785 10785 10786 10787 10787 10787 10787 10787 10787 10787 10787 10786 10786 10785 10785 10785 10784 10784 10783 10782 10781 10780 10778 10777 10775 10774 10773 10771 10770 10768 10767 10766 10765 10764 10763 10761
10742 10743 10744 10745 10747 10748 10749 10749 10750 10751 10752 10753 10754 10754 10755 10756 10757 10758 10759 10760 10761 10761 10761 10762 10762 10762 10763 10763 10764 10765 10766 10767 10768 10769 10770 10771 10772 10772 10773 10774 10775 10775 10776 10777 10778 10779 10780 10781 10782 10782 10783 10783 10784 10784 10785 10785 10785 10785 10785 10784 10784 10784 10783 10783 10782 10782 10782 10781 10780 10779 10778 10776 10775 10774 10772 10771 10769 10768 10767 10765 10764 10763 10762 10761 10760
10740 10741 10742 10743 10744 10745 10746 10747 10748 10749 10750 10751 10752 10753 10754 10755 10756 10757 10759 10760 10760 10759 10760 10760 10761 10761 10761 10762 10762 10763 10764 10765 10766 10767 10768 10769 10769 10770 10770 10771 10771 10772 10773 10775 10776 10777 10778 10779 10779 10780 10780 10781 10781 10782 10783 10783 10783 10783 10782 10782 10781 10781 10781 10780 10780 10780 10779 10779 10778 10777 10776 10774 10773 10772 10771 10769 10768 10766 10765 10763 10762 10761 10760 10759 10758
10737 10738 10739 10740 10741 10743 10744 10745 10746 10747 10748 10749 10750 10751 10752 10753 10754 10755 10756 10757 10757 10758 10759 10759 10760 10760 10760 10760 10761 10761 10762 10763 10764 10765 10765 10766 10766 10767 10767 10768 10768 10769 10770 10772 10773 10774 10775 10776 10776 10777 10777 10778 10779 10780 10780 10780 10780 10780 10780 10779 10779 10779 10778 10778 10777 10777 10777 10776 10775 10774 10773 10772 10771 10769 10768 10767 10765 10764 10762 10761 10760 10759 10758 10757 10756
10734 10735 10736 10737 10738 10740 10741 10742 10743 10744 10745 10746 10748 10749 10750 10750 10751 10752 10753 10754 10755 10755 10756 10757 10758 10758 10758 10758 10759 10759 10760 10761 10762 10762 10763 10764 10764 10764 10765 10765 10766 10766 10767 10769 10770 10771 10772 10773 10773 10774 10775 10775 10776 10777 10777 10778 10778 10777 10777 10776 10776 10776 10775 10775 10774 10774 10774 10773 10773 10772 10771 10769 10768 10767 10765 10763 10762 10761 10760 10758 10757 10756 10756 10755 10754
10731 10732 10733 10734 10735 10737 10738 10739 10740 10741 10742 10743 10745 10746 10747 10748 10749 10750 10750 10751 10751 10752 10753 10753 10754 10755 10755 10756 10756 10757 10758 10758 10759 10760 10760 10761 10761 10761 10762 10762 10763 10764 10765 10766 10767 10768 10769 10770 10770 10771 10772 10773 10773 10774 10774 10774 10775 10774 10773 10773 10772 10772 10772 10771 10771 10771 10771 10770 10770 10769 10767 10766 10765 10764 10762 10761 10759 10758 10757 10756 10755 10754 10754 10753 10753
10728 10729 10730 10731 10732 10733 10735 10736 10737 10738 10739 10740 10741 10743 10744 10745 10746 10747 10747 10748 10748 10749 10749 10750 10750 10751 10752 10753 10754 10754 10755 10756 10757 10757 10758 10758 10758 10759 10759 10759 10760 10761 10762 10763 10764 10765 10766 10767 10768 10768 10769 10770 10770 10770 10771 10771 10771 10770 10770 10769 10769 10768 10768 10767 10767 10767 10767 10767 10767 10767 10764 10762 10762 10761 10760 10759 10757 10756 10755 10754 10753 10752 10752 10751 10750
10724 10725 10726 10728 10729 10730 10731 10732 10734 10735 10736 10737 10738 10739 10740 10741 10742 10743 10744 10745 10745 10745 10746 10747 10747 10748 10749 10750 10751 10751 10752 10753 10754 10754 10755 10755 10755 10756 10756 10756 10757 10757 10758 10759 10760 10761 10762 10763 10764 10765 10766 10766 10767 10767 10767 10767 10767 10766 10766 10766 10765 10765 10764 10764 10764 10764 10764 10764 10765 10764 10761 10759 10759 10759 10758 10757 10755 10754 10754 10752 10751 10750 10750 10749 10748
10721 10722 10723 10725 10726 10727 10728 10729 10730 10731 10732 10733 10734 10735 10737 10737 10738 10740 10740 10741 10742 10742 10743 10743 10744 10745 10745 10746 10747 10748 10749 10750 10750 10751 10752 10752 10753 10753 10753 10753 10753 10753 10755 10756 10757 10757 10758 10760 10761 10762 10762 10763 10763 10763 10763 10763 10763 10762 10762 10762 10761 10761 10760 10760 10760 10760 10761 10761 10761 10760 10757 10756 10757 10756 10755 10755 10754 10752 10751 10750 10749 10748 10748 10747 10746
10718 10719 10720 10722 10723 10724 10725 10726 10727 10728 10729 10730 10731 10732 10733 10734 10735 10735 10736 10737 10738 10739 10739 10740 10741 10741 10742 10743 10743 10744 10745 10746 10747 10748 10748 10749 10749 10750 10750 10750 10750 10750 10751 10753 10754 10754 10755 10756 10757 10758 10758 10758 10758 10758 10759 10759 10759 10758 10758 10758 10757 10757 10756 10756 10756 10757 10757 10757 10757 10755 10753 10753 10753 10753 10752 10752 10751 10750 10749 10748 10747 10746 10745 10744 10743
10714 10716 10717 10718 10720 10721 10722 10723 10724 10725 10725 10726 10727 10728 10729 10730 10731 10731 10732 10733 10734 10735 10736 10737 10737 10738 10739 10739 10740 10740 10741 10742 10743 10744 10744 10745 10745 10746 10746 10747 10747 10746 10747 10749 10750 10751 10752 10752 10754 10754 10754 10754 10754 10754 10754 10754 10754 10754 10754 10753 10753 10753 10752 10752 10753 10753 10753 10753 10751 10749 10749 10750 10750 10749 10749 10748 10747 10747 10746 10745 10744 10743 10742 10741 10741
10711 10712 10713 10714 10716 10717 10718 10719 10720 10721 10722 10723 10724 10724 10725 10726 10726 10727 10728 10729 10730 10730 10732 10732 10733 10734 10735 10735 10736 10736 10737 10738 10739 10739 10740 10740 10741 10742 10742 10743 10743 10743 10743 10744 10746 10747 10748 10748 10750 10751 10751 10750 10750 10750 10750 10750 10750 10749 10749 10749 10748 10748 10748 10748 10748 10749 10748 10747 10746 10745 10745 10746 10745 10745 10745 10744 10744 10743 10743 10742 10740 10739 10738 10738 10737
10707 10708 10709 10710 10711 10712 10714 10715 10716 10717 10718 10719 10719 10720 10721 10722 10722 10723 10723 10724 10725 10726 10727 10728 10729 10730 10730 10731 10731 10732 10732 10733 10734 10735 10735 10736 10736 10737 10737 10738 10739 10739 10738 10739 10741 10743 10743 10744 10745 10746 10746 10746 10746 10745 10745 10746 10745 10744 10744 10744 10744 10743 10743 10743 10744 10744 10743 10741 10741 10741 10741 10741 10740 10740 10740 10740 10740 10739 10738 10738 10737 10735 10734 10734 10734
10703 10704 10705 10706 10707 10708 10709 10710 10712 10713 10713 10714 10715 10715 10716 10717 10717 10718 10719 10720 10721 10722 10723 10724 10725 10725 10726 10727 10727 10727 10727 10728 10729 10730 10730 10731 10732 10732 10733 10734 10734 10734 10734 10734 10735 10737 10738 10739 10739 10740 10740 10741 10741 10741 10740 10740 10740 10739 10739 10738 10738 10738 10738 10738 10739 10738 10737 10736 10736 10737 10737 10736 10736 10735 10735 10735 10735 10734 10734 10733 10732 10731 10730 10730 10730
10697 10698 10700 10701 10702 10703 10704 10705 10706 10707 10708 10709 10710 10710 10711 10712 10713 10713 10714 10715 10717 10718 10719 10719 10720 10720 10721 10722 10722 10722 10723 10723 10724 10725 10726 10726 10727 10728 10729 10729 10729 10729 10729 10729 10729 10730 10731 10732 10732 10733 10734 10735 10736 10736 10736 10735 10735 10734 10734 10733 10733 10733 10732 10733 10733 10733 10731 10730 10731 10732 10731 10731 10731 10730 10730 10730 10729 10729 10729 10728 10727 10727 10726 10725 10725
10692 10694 10695 10696 10697 10698 10699 10700 10701 10702 10702 10703 10704 10705 10705 10706 10707 10708 10709 10710 10711 10713 10714 10715 10715 10715 10716 10717 10717 10718 10718 10719 10719 10720 10721 10721 10722 10723 10724 10724 10723 10723 10723 10724 10724 10724 10724 10725 10725 10726 10727 10728 10729 10730 10731 10730 10729 10729 10728 10728 10727 10726 10726 10726 10726 10726 10724 10724 10725 10726 10725 10726 10726 10725 10725 10724 10723 10723 10723 10722 10722 10721 10721 10720 10720
10689 10690 10691 10692 10692 10693 10694 10694 10695 10696 10697 10698 10698 10699 10699 10699 10700 10701 10703 10704 10706 10708 10709 10710 10709 10710 10711 10712 10713 10713 10713 10713 10714 10714 10715 10716 10717 10718 10719 10718 10718 10718 10717 10717 10717 10719 10718 10718 10718 10719 10720 10720 10721 10722 10724 10724 10723 10723 10722 10721 10720 10720 10719 10719 10720 10719 10718 10717 10718 10719 10718 10719 10720 10720 10719 10719 10718 10718 10717 10716 10716 10716 10715 10715 10715
10684 10684 10685 10685 10686 10687 10688 10689 10689 10690 10691 10692 10692 10692 10692 10692 10693 10695 10696 10698 10700 10703 10704 10704 10704 10705 10706 10707 10708 10708 10707 10707 10707 10707 10709 10710 10711 10712 10713 10712 10712 10711 10711 10709 10709 10711 10713 10711 10710 10711 10711 10712 10713 10714 10715 10716 10715 10715 10715 10714 10713 10712 10712 10713 10713 10713 10711 10710 10711 10712 10712 10712 10713 10713 10714 10713 10713 10712 10711 10710 10710 10710 10710 10709 10709
10678 10678 10679 10679 10680 10681 10681 10682 10683 10683 10684 10684 10685 10685 10685 10686 10687 10689 10691 10692 10695 10697 10697 10698 10699 10700 10700 10701 10702 10702 10700 10700 10701 10701 10702 10703 10704 10705 10705 10705 10706 10705 10704 10703 10701 10703 10705 10706 10704 10704 10703 10703 10705 10706 10706 10706 10706 10706 10706 10705 10704 10704 10704 10705 10706 10705 10703 10702 10703 10704 10705 10705 10705 10706 10707 10708 10707 10705 10705 10706 10706 10705 10705 10705 10704
10674 10674 10674 10674 10674 10675 10675 10676 10676 10676 10676 10677 10677 10678 10678 10680 10681 10683 10685 10686 10688 10689 10690 10691 10692 10692 10693 10693 10694 10694 10692 10692 10693 10694 10695 10696 10696 10697 10697 10698 10698 10698 10697 10697 10695 10694 10696 10698 10698 10697 10696 10695 10696 10697 10697 10697 10697 10697 10696 10695 10694 10694 10695 10697 10697 10697 10696 10695 10695 10696 10697 10697 10698 10700 10701 10701 10700 10699 10700 10701 10701 10700 10700 10699 10699
10669 10669 10669 10669 10669 10670 10670 10670 10670 10669 10669 10670 10671 10672 10673 10674 10676 10677 10678 10679 10681 10682 10683 10684 10684 10684 10683 10682 10683 10684 10683 10684 10685 10686 10687 10687 10688 10689 10690 10690 10690 10690 10690 10689 10689 10687 10686 10688 10689 10689 10689 10688 10687 10688 10688 10687 10687 10687 10686 10685 10684 10684 10685 10686 10687 10688 10688 10688 10688 10689 10690 10690 10691 10693 10694 10692 10692 10692 10694 10695 10695 10694 10695 10694 10693
10664 10663 10663 10664 10664 10665 10665 10665 10665 10664 10664 10665 10666 10666 10667 10668 10670 10671 10672 10673 10673 10674 10674 10673 10673 10673 10673 10671 10671 10674 10676 10676 10678 10679 10679 10680 10680 10681 10682 10682 10682 10682 10682 10682 10682 10680 10678 10677 10678 10680 10680 10680 10679 10679 10679 10678 10676 10676 10676 10675 10674 10673 10674 10675 10676 10678 10680 10680 10680 10680 10682 10683 10685 10686 10686 10684 10683 10684 10686 10687 10688 10687 10688 10688 10687
10659 10658 10658 10658 10658 10658 10659 10659 10659 10659 10659 10660 10660 10660 10661 10663 10664 10666 10666 10665 10665 10664 10663 10663 10664 10665 10666 10664 10664 10667 10670 10671 10671 10671 10672 10672 10672 10672 10673 10673 10673 10673 10674 10673 10672 10672 10670 10667 10666 10668 10670 10670 10669 10669 10669 10668 10667 10666 10665 10664 10664 10664 10664 10664 10665 10667 10670 10672 10672 10671 10673 10675 10678 10679 10678 10676 10675 10677 10678 10680 10679 10679 10679 10680 10680
10655 10654 10654 10653 10652 10652 10651 10652 10654 10654 10655 10654 10654 10654 10656 10658 10659 10659 10658 10657 10657 10658 10657 10658 10659 10660 10661 10660 10658 10660 10661 10662 10663 10663 10663 10663 10663 10663 10664 10664 10665 10665 10664 10664 10663 10662 10661 10659 10656 10655 10656 10658 10658 10658 10659 10658 10656 10655 10656 10655 10654 10653 10654 10654 10655 10656 10659 10662 10663 10663 10663 10665 10668 10670 10670 10669 10669 10671 10673 10673 10670 10669 10670 10671 10671
10650 10650 10649 10649 10648 10646 10645 10646 10647 10648 10649 10649 10649 10649 10651 10652 10652 10651 10650 10650 10651 10653 10653 10654 10654 10654 10654 10654 10653 10653 10653 10654 10654 10655 10655 10655 10655 10655 10656 10656 10657 10656 10656 10655 10654 10653 10652 10650 10647 10645 10643 10644 10645 10646 10648 10649 10647 10645 10646 10646 10644 10643 10643 10644 10645 10646 10647 10650 10653 10654 10654 10654 10656 10659 10661 10663 10664 10666 10669 10667 10660 10658 10660 10661 10661
10646 10645 10645 10644 10643 10641 10640 10640 10640 10642 10642 10642 10643 10645 10646 10646 10645 10644 10645 10645 10645 10646 10647 10648 10648 10647 10647 10647 10646 10647 10647 10647 10647 10647 10648 10649 10648 10648 10648 10649 10649 10648 10647 10646 10645 10644 10643 10641 10639 10636 10633 10633 10633 10634 10635 10637 10638 10636 10636 10635 10633 10633 10633 10633 10634 10635 10637 10639 10642 10643 10644 10645 10645 10647 10650 10653 10656 10659 10661 10658 10651 10650 10652 10652 10650
10643 10642 10641 10640 10639 10637 10635 10635 10635 10636 10636 10635 10637 10639 10639 10638 10638 10638 10639 10640 10640 10640 10641 10642 10642 10641 10641 10641 10640 10641 10641 10640 10640 10640 10640 10640 10639 10639 10640 10640 10639 10639 10638 10637 10637 10635 10634 10632 10630 10628 10625 10623 10622 10623 10623 10624 10626 10627 10627 10626 10623 10622 10624 10624 10623 10623 10626 10629 10630 10631 10633 10634 10635 10636 10639 10642 10645 10648 10650 10647 10643 10643 10644 10644 10644
10640 10638 10638 10637 10635 10633 10631 10630 10631 10631 10630 10630 10631 10633 10633 10632 10632 10632 10633 10634 10635 10635 10636 10636 10636 10635 10635 10635 10635 10635 10634 10634 10633 10633 10633 10632 10631 10632 10632 10631 10630 10630 10629 10629 10628 10626 10625 10623 10620 10618 10615 10613 10612 10612 10612 10612 10614 10615 10616 10617 10614 10612 10612 10614 10614 10614 10615 10617 10618 10619 10621 10623 10625 10626 10628 10631 10632 10635 10638 10636 10634 10633 10633 10635 10637
10636 10635 10634 10633 10632 10630 10628 10626 10626 10626 10626 10626 10627 10628 10628 10627 10627 10627 10627 10628 10630 10630 10630 10631 10630 10630 10629 10629 10629 10629 10628 10628 10628 10627 10625 10624 10624 10624 10623 10623 10622 10622 10621 10620 10618 10616 10614 10612 10609 10607 10605 10603 10602 10602 10602 10602 10603 10604 10605 10606 10606 10604 10602 10603 10603 10605 10606 10606 10607 10608 10610 10613 10615 10616 10618 10620 10621 10623 10624 10624 10624 10623 10622 10624 10627
10633 10632 10631 10630 10629 10628 10626 10624 10622 10621 10621 10621 10622 10622 10622 10622 10622 10621 10621 10622 10623 10623 10624 10625 10625 10625 10624 10624 10623 10622 10622 10622 10622 10619 10618 10617 10616 10615 10614 10614 10614 10613 10611 10609 10608 10606 10603 10601 10599 10597 10596 10594 10593 10593 10593 10592 10592 10593 10594 10595 10595 10595 10594 10593 10593 10595 10597 10598 10598 10598 10600 10603 10605 10606 10607 10608 10609 10611 10612 10612 10612 10613 10613 10614 10616
10630 10628 10627 10626 10625 10624 10623 10621 10619 10618 10617 10617 10617 10617 10616 10616 10615 10615 10615 10616 10616 10616 10616 10617 10617 10618 10618 10617 10616 10615 10615 10615 10613 10612 10610 10609 10608 10607 10606 10606 10605 10604 10602 10600 10599 10596 10594 10591 10590 10589 10588 10586 10585 10585 10584 10583 10583 10583 10583 10584 10584 10584 10584 10585 10585 10585 10586 10589 10590 10590 10591 10593 10594 10595 10596 10597 10599 10600 10600 10600 10601 10602 10603 10604 10606
10626 10625 10624 10622 10621 10620 10619 10618 10617 10615 10613 10612 10612 10611 10610 10610 10609 10608 10608 10608 10608 10608 10609 10609 10609 10609 10609 10609 10608 10607 10607 10607 10605 10604 10603 10602 10600 10600 10599 10598 10597 10596 10594 10593 10591 10589 10586 10584 10582 10581 10580 10578 10577 10577 10576 10575 10574 10574 10573 10573 10573 10574 10574 10575 10575 10575 10575 10578 10580 10581 10581 10582 10584 10585 10586 10587 10588 10588 10589 10590 10590 10591 10592 10593 10595
10623 10622 10620 10619 10618 10617 10615 10614 10614 10613 10611 10609 10607 10606 10605 10604 10603 10601 10601 10602 10601 10601 10601 10602 10601 10601 10601 10601 10600 10600 10599 10599 10598 10596 10595 10594 10593 10592 10591 10591 10590 10588 10587 10586 10585 10582 10579 10578 10576 10574 10573 10572 10570 10569 10569 10568 10566 10566 10565 10564 10564 10564 10565 10564 10564 10564 10565 10567 10570 10572 10571 10572 10574 10575 10575 10577 10578 10578 10579 10579 10580 10581 10581 10582 10585
10619 10619 10617 10616 10614 10613 10612 10611 10610 10610 10609 10607 10605 10603 10601 10600 10598 10596 10595 10596 10595 10593 10594 10594 10593 10593 10593 10592 10592 10591 10591 10591 10589 10588 10588 10587 10585 10585 10584 10583 10582 10580 10580 10580 10579 10575 10573 10572 10570 10568 10566 10565 10563 10562 10562 10561 10559 10558 10557 10556 10556 10556 10556 10554 10553 10553 10555 10557 10559 10561 10561 10561 10563 10565 10565 10565 10566 10567 10568 10569 10569 10571 10571 10572 10574
10615 10615 10613 10612 10611 10609 10608 10607 10606 10606 10605 10604 10603 10601 10599 10597 10595 10593 10591 10590 10589 10587 10586 10586 10586 10586 10585 10585 10584 10583 10583 10582 10581 10581 10580 10579 10578 10577 10576 10576 10574 10572 10573 10574 10571 10568 10566 10565 10564 10562 10560 10558 10556 10554 10554 10553 10552 10550 10548 10547 10547 10548 10546 10544 10543 10543 10545 10546 10548 10550 10551 10550 10551 10553 10554 10553 10555 10556 10557 10558 10559 10560 10561 10562 10563
10610 10610 10609 10608 10607 10605 10604 10602 10602 10601 10601 10599 10598 10597 10595 10594 10593 10590 10588 10587 10585 10582 10581 10580 10579 10579 10578 10577 10577 10576 10575 10573 10573 10574 10573 10571 10571 10570 10569 10568 10566 10565 10566 10567 10564 10561 10560 10558 10556 10555 10553 10551 10549 10547 10547 10546 10543 10541 10539 10538 10538 10538 10536 10534 10533 10533 10534 10535 10537 10538 10540 10540 10540 10541 10542 10542 10543 10544 10545 10547 10548 10549 10549 10551 10552
10604 10605 10604 10603 10602 10601 10600 10598 10597 10596 10596 10595 10593 10591 10590 10588 10587 10585 10584 10582 10580 10577 10576 10574 10573 10572 10570 10570 10569 10568 10567 10566 10566 10567 10566 10564 10563 10563 10562 10561 10559 10558 10559 10559 10557 10555 10553 10551 10549 10548 10546 10545 10543 10540 10539 10538 10536 10533 10530 10529 10529 10528 10527 10525 10525 10524 10524 10526 10527 10528 10529 10529 10529 10530 10531 10531 10532 10533 10534 10536 10538 10538 10538 10539 10541
10600 10599 10598 10598 10597 10596 10595 10593 10592 10591 10591 10589 10588 10586 10584 10582 10581 10579 10577 10576 10574 10572 10570 10568 10567 10565 10563 10562 10562 10561 10560 10559 10559 10560 10559 10557 10556 10556 10555 10553 10552 10551 10552 10551 10550 10549 10547 10544 10542 10540 10539 10538 10536 10534 10532 10531 10529 10526 10522 10520 10520 10519 10518 10517 10516 10515 10515 10517 10518 10519 10519 10519 10519 10520 10521 10521 10521 10522 10523 10526 10528 10528 10528 10528 10529